Weather History for New Bern, NC

Change the Weather History Date:

Wednesday, January 4, 2012

  Actual Average Record
Temperature  
Mean Temperature 31 °F 44 °F  
Max Temperature 43 °F 54 °F 78 °F (2004)
Min Temperature 19 °F 34 °F 15 °F (2008)
Degree Days  
Heating Degree Days 34 21  
Month to date heating degree days 97 84  
Since 1 July heating degree days 928 1078  
Cooling Degree Days 0 0  
Month to date cooling degree days 0 0  
Year to date cooling degree days 0 0  
Moisture  
Dew Point 11 °F    
Average Humidity 43    
Maximum Humidity 63    
Minimum Humidity 22    
Precipitation  
Precipitation 0.00 in 0.13 in 1.29 in (2015)
Month to date precipitation 0.00 0.50  
Year to date precipitation 0.00 0.50  
Snow  
Snow 0.00 in - - ()
Month to date snowfall 0.0  
Since 1 July snowfall 0.0  
Snow Depth 0.00 in    
Sea Level Pressure  
Sea Level Pressure 30.30 in    
Wind  
Wind Speed 6 mph (WSW)    
Max Wind Speed 14 mph    
Max Gust Speed 16 mph    
Visibility 10 miles    
Events      
T = Trace of Precipitation, MM = Missing Value Source: NWS Daily Summary

Daily Weather History Graph

Daily Weather History Graph

Search for Another Location

Airport:

Trip Planner

Search our weather history database for the weather conditions in past years. The results will help you decide how hot, cold, wet, or windy it might be!

Date:

Astronomy

Jan. 04, 2012 Rise Set
Actual Time 7:16 AM EST 5:09 PM EST
Civil Twilight 6:48 AM EST 5:37 PM EST
Nautical Twilight 6:17 AM EST 6:08 PM EST
Astronomical Twilight 5:46 AM EST 6:39 PM EST
Moon 1:29 PM EST (1/4) 3:04 AM EST (1/4)
Length of Visible Light 10h 48m
Length of Day
9h 52m
Waxing Gibbous, 80% of the Moon is Illuminated
Jan 4
Waxing Gibbous
Jan 9
Full
Jan 16
Last Quarter
Jan 23
New
Jan 30
First Quarter

Hourly Weather History & Observations

Time (EST) Temp. Windchill Dew Point Humidity Pressure Visibility Wind Dir Wind Speed Gust Speed Precip Events Conditions
12:54 AM 26.1 °F 18.4 °F 3.9 °F 39% 30.34 in 10.0 mi North 6.9 mph - N/A   Clear
1:54 AM 26.1 °F 18.4 °F 3.0 °F 37% 30.34 in 10.0 mi North 6.9 mph - N/A   Clear
2:54 AM 25.0 °F 14.8 °F 1.9 °F 37% 30.35 in 10.0 mi North 10.4 mph - N/A   Clear
3:54 AM 24.1 °F 14.4 °F 1.9 °F 38% 30.36 in 10.0 mi NNW 9.2 mph - N/A   Clear
4:54 AM 23.0 °F 17.0 °F 3.0 °F 42% 30.36 in 10.0 mi North 4.6 mph - N/A   Clear
5:54 AM 21.9 °F 17.2 °F 6.1 °F 51% 30.39 in 10.0 mi West 3.5 mph - N/A   Clear
6:54 AM 19.9 °F 14.9 °F 6.1 °F 55% 30.40 in 10.0 mi SW 3.5 mph - N/A   Clear
7:54 AM 21.0 °F 16.2 °F 9.0 °F 60% 30.43 in 10.0 mi WSW 3.5 mph - N/A   Clear
8:54 AM 28.0 °F 22.8 °F 10.0 °F 47% 30.44 in 10.0 mi WSW 4.6 mph - N/A   Clear
9:54 AM 30.9 °F 25.2 °F 6.1 °F 35% 30.44 in 10.0 mi WSW 5.8 mph - N/A   Unknown
10:54 AM 33.8 °F 30.8 °F 8.6 °F 35% 30.41 in 10.0 mi Variable 3.5 mph - N/A   Clear
11:54 AM 36.0 °F 29.6 °F 10.0 °F 34% 30.35 in 10.0 mi WSW 8.1 mph - N/A   Unknown
12:54 PM 37.9 °F - 10.0 °F 32% 30.31 in - North - - N/A   Unknown
1:54 PM 39.9 °F 34.5 °F 10.0 °F 29% 30.28 in 10.0 mi West 8.1 mph - N/A   Clear
2:54 PM 42.1 °F 36.1 °F 9.0 °F 26% 30.24 in 10.0 mi SSW 10.4 mph - N/A   Clear
3:54 PM 42.1 °F 37.1 °F 7.0 °F 24% 30.22 in 10.0 mi SSW 8.1 mph - N/A   Clear
4:54 PM 39.0 °F 33.4 °F 9.0 °F 29% 30.21 in 10.0 mi SSW 8.1 mph - N/A   Clear
5:54 PM 36.0 °F 29.0 °F 19.0 °F 50% 30.19 in 10.0 mi South 9.2 mph - N/A   Clear
6:54 PM 34.0 °F 28.8 °F 19.9 °F 56% 30.20 in 10.0 mi SSW 5.8 mph - N/A   Clear
7:54 PM 34.0 °F - 19.9 °F 56% 30.20 in 10.0 mi Calm Calm - N/A   Clear
8:54 PM 30.9 °F 27.5 °F 19.9 °F 64% 30.20 in 10.0 mi SW 3.5 mph - N/A   Clear
9:54 PM 34.0 °F 29.8 °F 21.0 °F 59% 30.19 in 10.0 mi SW 4.6 mph - N/A   Overcast
10:54 PM 37.0 °F 32.4 °F 21.9 °F 54% 30.17 in 10.0 mi WSW 5.8 mph - N/A   Mostly Cloudy
11:54 PM 35.1 °F 30.1 °F 21.0 °F 57% 30.14 in 10.0 mi SW 5.8 mph - N/A   Clear